This is the latest recevied weather packets stored in our database for station/object SP6PWT-13. If no packets are shown the sender has not sent any weather packets the latest 10 day(s).
| Time | Temp. | Humidity | Pressure | Rain* | Wind** | Luminosity | Snow |
|---|---|---|---|---|---|---|---|
| 1777869104 | 13.33° C | 54% | 997.1 hPa | 0 mm | - | 45 W/m² | - |
| 1777868804 | 13.33° C | 55% | 997.3 hPa | 0 mm | - | 43 W/m² | - |
| 1777868503 | 13.33° C | 55% | 997.3 hPa | 0 mm | - | 40 W/m² | - |
| 1777868202 | 13.89° C | 53% | 997.4 hPa | 0 mm | - | 36 W/m² | - |
| 1777867902 | 13.89° C | 53% | 997.3 hPa | 0 mm | - | 31 W/m² | - |
| 1777867601 | 13.89° C | 52% | 997.2 hPa | 0 mm | - | 27 W/m² | - |
| 1777867300 | 13.89° C | 51% | 997.3 hPa | 0 mm | - | 23 W/m² | - |
| 1777867000 | 13.89° C | 51% | 997.2 hPa | 0 mm | - | 20 W/m² | - |
| 1777866700 | 13.89° C | 53% | 997.2 hPa | 0 mm | - | 17 W/m² | - |
| 1777866399 | 13.33° C | 53% | 997.3 hPa | 0 mm | - | 14 W/m² | - |
| 1777866099 | 13.89° C | 53% | 997.3 hPa | 0 mm | - | 11 W/m² | - |
| 1777865798 | 13.89° C | 53% | 997.2 hPa | 0 mm | - | 8 W/m² | - |
| 1777865497 | 13.89° C | 52% | 997.1 hPa | 0 mm | - | 5 W/m² | - |
| 1777865197 | 13.89° C | 52% | 997 hPa | 0 mm | - | 4 W/m² | - |
| 1777864896 | 13.89° C | 52% | 996.7 hPa | 0 mm | - | 2 W/m² | - |
| 1777864596 | 13.89° C | 52% | 997 hPa | 0 mm | - | 1 W/m² | - |
| 1777864296 | 13.89° C | 52% | 996.8 hPa | 0 mm | - | 1 W/m² | - |
| 1777863996 | 13.89° C | 52% | 996.4 hPa | 0 mm | - | 0 W/m² | - |
| 1777863695 | 13.89° C | 52% | 996.5 hPa | 0 mm | - | 0 W/m² | - |
| 1777863395 | 13.33° C | 53% | 996.5 hPa | 0 mm | - | 0 W/m² | - |
| 1777863094 | 13.33° C | 54% | 996.3 hPa | 0 mm | - | 0 W/m² | - |
| 1777862793 | 13.89° C | 53% | 996.4 hPa | 0 mm | - | 0 W/m² | - |
| 1777862493 | 13.89° C | 53% | 996.4 hPa | 0 mm | - | 0 W/m² | - |
| 1777862193 | 13.89° C | 52% | 996.4 hPa | 0 mm | - | 0 W/m² | - |
| 1777861892 | 13.89° C | 52% | 996.2 hPa | 0 mm | - | 0 W/m² | - |
* Rain latest hour (hover to see other rain measurements)
** Current wind speed in m/s (hover to see current wind gust speed)